| time (UTC) | temp F | wind direction | speed knots | gust knots | rain 1hr in | rain 24hr in | rain mn in | humidity % | barometer mb |
| 20260505075537 | 49 | 251 | 7.8 | 15.6 | 0.00 | 0.13 | 0.00 | 74 | 1007.0 |
| 20260505075038 | 49 | 244 | 7.8 | 12.2 | 0.00 | 0.13 | 0.00 | 75 | 1006.7 |
| 20260505074540 | 49 | 203 | 7.8 | 13.9 | 0.00 | 0.13 | 0.00 | 75 | 1006.7 |
| 20260505074039 | 49 | 182 | 5.2 | 17.4 | 0.00 | 0.13 | 0.00 | 75 | 1006.9 |
| 20260505073535 | 49 | 232 | 10.4 | 17.4 | 0.00 | 0.13 | 0.00 | 75 | 1007.0 |
| 20260505073043 | 49 | 254 | 8.7 | 17.4 | 0.00 | 0.13 | 0.00 | 76 | 1007.2 |
| 20260505072532 | 49 | 233 | 8.7 | 17.4 | 0.01 | 0.13 | 0.00 | 76 | 1006.9 |
| 20260505072031 | 49 | 254 | 7.8 | 16.5 | 0.01 | 0.13 | 0.00 | 76 | 1006.7 |
| 20260505071539 | 49 | 238 | 9.6 | 15.6 | 0.02 | 0.13 | 0.00 | 75 | 1006.7 |
| 20260505071030 | 49 | 253 | 10.4 | 15.6 | 0.02 | 0.13 | 0.00 | 75 | 1006.6 |
| 20260505070528 | 49 | 218 | 8.7 | 15.6 | 0.03 | 0.13 | 0.00 | 76 | 1006.5 |
| 20260505070029 | 49 | 246 | 8.7 | 15.6 | 0.03 | 0.13 | 0.00 | 76 | 1006.2 |
| 20260505065526 | 49 | 237 | 7.8 | 14.8 | 0.03 | 0.13 | 0.13 | 76 | 1006.4 |
| 20260505065025 | 50 | 233 | 6.1 | 13.9 | 0.03 | 0.13 | 0.13 | 76 | 1006.6 |
| 20260505064525 | 49 | 189 | 7.0 | 13.9 | 0.03 | 0.13 | 0.13 | 76 | 1006.7 |
| 20260505064024 | 49 | 221 | 5.2 | 8.7 | 0.03 | 0.13 | 0.13 | 76 | 1007.0 |
| 20260505063524 | 49 | 202 | 5.2 | 8.7 | 0.03 | 0.13 | 0.13 | 76 | 1007.0 |
| 20260505063033 | 49 | 202 | 5.2 | 10.4 | 0.03 | 0.13 | 0.13 | 76 | 1007.2 |
| 20260505062524 | 49 | 246 | 6.1 | 13.9 | 0.02 | 0.12 | 0.12 | 74 | 1007.1 |
| 20260505062030 | 50 | 211 | 5.2 | 13.9 | 0.02 | 0.12 | 0.12 | 73 | 1007.1 |
| 20260505061527 | 50 | 235 | 7.0 | 18.2 | 0.01 | 0.11 | 0.11 | 72 | 1006.7 |
| 20260505061024 | 51 | 254 | 9.6 | 18.2 | 0.01 | 0.11 | 0.11 | 70 | 1006.6 |
| 20260505060518 | 51 | 223 | 11.3 | 18.2 | 0.00 | 0.10 | 0.10 | 68 | 1006.3 |
| 20260505060018 | 51 | 195 | 10.4 | 18.2 | 0.00 | 0.10 | 0.10 | 67 | 1006.2 |
| 20260505055518 | 51 | 266 | 10.4 | 19.1 | 0.00 | 0.10 | 0.10 | 67 | 1006.0 |
| 20260505055020 | 51 | 196 | 10.4 | 19.1 | 0.00 | 0.10 | 0.10 | 68 | 1005.9 |
| 20260505054516 | 51 | 244 | 7.8 | 16.5 | 0.00 | 0.10 | 0.10 | 68 | 1005.8 |
| 20260505054017 | 51 | 246 | 7.8 | 16.5 | 0.00 | 0.10 | 0.10 | 67 | 1005.9 |
| 20260505053516 | 51 | 232 | 9.6 | 15.6 | 0.00 | 0.10 | 0.10 | 66 | 1006.0 |
| 20260505053016 | 52 | 271 | 7.8 | 13.9 | 0.00 | 0.10 | 0.10 | 65 | 1005.9 |
| 20260505052515 | 52 | 211 | 8.7 | 14.8 | 0.00 | 0.10 | 0.10 | 65 | 1005.9 |
| 20260505052015 | 52 | 252 | 8.7 | 14.8 | 0.00 | 0.10 | 0.10 | 65 | 1005.9 |
| 20260505051531 | 52 | 246 | 8.7 | 14.8 | 0.00 | 0.10 | 0.10 | 65 | 1005.8 |
| 20260505051016 | 52 | 230 | 8.7 | 16.5 | 0.00 | 0.10 | 0.10 | 65 | 1005.8 |
| 20260505050520 | 51 | 184 | 8.7 | 17.4 | 0.00 | 0.10 | 0.10 | 65 | 1005.9 |
| 20260505041516 | 51 | 232 | 8.7 | 19.1 | 0.00 | 0.10 | 0.10 | 68 | 1005.4 |
| 20260505041013 | 52 | 193 | 10.4 | 19.1 | 0.00 | 0.10 | 0.10 | 68 | 1005.4 |
| 20260505040513 | 51 | 232 | 9.6 | 20.0 | 0.00 | 0.10 | 0.10 | 68 | 1005.4 |
| 20260505040015 | 51 | 226 | 8.7 | 17.4 | 0.00 | 0.10 | 0.10 | 70 | 1005.4 |
| 20260505035512 | 51 | 217 | 7.8 | 18.2 | 0.00 | 0.10 | 0.10 | 72 | 1005.4 |
| 20260505035012 | 51 | 242 | 10.4 | 20.0 | 0.00 | 0.10 | 0.10 | 73 | 1005.3 |
| 20260505034512 | 51 | 236 | 11.3 | 20.0 | 0.00 | 0.10 | 0.10 | 73 | 1005.3 |
| 20260505034011 | 51 | 252 | 9.6 | 16.5 | 0.00 | 0.10 | 0.10 | 73 | 1005.2 |
| 20260505033510 | 51 | 232 | 8.7 | 17.4 | 0.00 | 0.10 | 0.10 | 73 | 1005.2 |
| 20260505033010 | 51 | 234 | 8.7 | 22.6 | 0.00 | 0.10 | 0.10 | 71 | 1005.2 |
| 20260505032513 | 51 | 259 | 9.6 | 22.6 | 0.00 | 0.10 | 0.10 | 70 | 1005.2 |
| 20260505032008 | 51 | 171 | 10.4 | 16.5 | 0.01 | 0.10 | 0.10 | 70 | 1005.0 |
| 20260505031522 | 51 | 207 | 10.4 | 14.8 | 0.01 | 0.10 | 0.10 | 71 | 1004.9 |
| 20260505031009 | 51 | 224 | 9.6 | 13.9 | 0.01 | 0.10 | 0.10 | 71 | 1004.7 |
| 20260505030508 | 51 | 212 | 9.6 | 14.8 | 0.01 | 0.10 | 0.10 | 71 | 1004.6 |
| 20260505030008 | 51 | 175 | 9.6 | 18.2 | 0.01 | 0.10 | 0.10 | 71 | 1004.7 |
| 20260505025514 | 51 | 260 | 11.3 | 19.1 | 0.01 | 0.10 | 0.10 | 71 | 1004.6 |
| 20260505025007 | 51 | 223 | 12.2 | 20.0 | 0.01 | 0.10 | 0.10 | 73 | 1004.5 |
| 20260505024506 | 51 | 202 | 13.0 | 19.1 | 0.01 | 0.10 | 0.10 | 74 | 1004.6 |
| 20260505024006 | 51 | 219 | 9.6 | 18.2 | 0.01 | 0.10 | 0.10 | 75 | 1004.7 |
| 20260505023505 | 51 | 267 | 11.3 | 18.2 | 0.01 | 0.10 | 0.10 | 76 | 1004.9 |
| 20260505023004 | 51 | 269 | 8.7 | 16.5 | 0.01 | 0.10 | 0.10 | 74 | 1005.2 |
| 20260505022504 | 52 | 261 | 6.1 | 15.6 | 0.01 | 0.10 | 0.10 | 73 | 1005.5 |
| 20260505022003 | 52 | 258 | 8.7 | 17.4 | 0.00 | 0.09 | 0.09 | 72 | 1005.5 |
| 20260505021504 | 52 | 247 | 7.8 | 14.8 | 0.00 | 0.09 | 0.09 | 71 | 1005.5 |
| 20260505021002 | 52 | 224 | 7.8 | 16.5 | 0.00 | 0.09 | 0.09 | 71 | 1005.4 |
| 20260505020503 | 52 | 238 | 7.8 | 16.5 | 0.00 | 0.09 | 0.09 | 72 | 1005.1 |
| 20260505020003 | 52 | 192 | 7.8 | 17.4 | 0.00 | 0.09 | 0.09 | 73 | 1004.9 |
| 20260505015503 | 52 | 221 | 8.7 | 19.1 | 0.01 | 0.09 | 0.09 | 74 | 1004.9 |
| 20260505015002 | 52 | 221 | 8.7 | 22.6 | 0.02 | 0.09 | 0.09 | 75 | 1004.8 |
| 20260505014504 | 51 | 246 | 10.4 | 22.6 | 0.03 | 0.09 | 0.09 | 76 | 1004.7 |
| 20260505014103 | 52 | 244 | 11.3 | 20.0 | 0.04 | 0.09 | 0.09 | 76 | 1004.6 |
| 20260505014002 | 52 | 234 | 11.3 | 20.0 | 0.04 | 0.09 | 0.09 | 76 | 1004.5 |
| 20260505013600 | 52 | 231 | 8.7 | 19.1 | 0.05 | 0.09 | 0.09 | 75 | 1004.5 |
| 20260505013100 | 52 | 225 | 11.3 | 16.5 | 0.06 | 0.09 | 0.09 | 74 | 1004.4 |
| 20260505012600 | 53 | 260 | 7.8 | 13.9 | 0.06 | 0.09 | 0.09 | 69 | 1004.3 |
| 20260505012059 | 54 | 282 | 1.7 | 9.6 | 0.06 | 0.09 | 0.09 | 67 | 1004.1 |
| 20260505011559 | 53 | 204 | 7.0 | 9.6 | 0.06 | 0.09 | 0.09 | 67 | 1003.7 |
| 20260505011058 | 53 | 173 | 6.1 | 12.2 | 0.06 | 0.09 | 0.09 | 69 | 1003.6 |
| 20260505010601 | 52 | 175 | 7.8 | 16.5 | 0.06 | 0.09 | 0.09 | 72 | 1003.4 |
| 20260505010113 | 52 | 182 | 10.4 | 20.0 | 0.07 | 0.09 | 0.09 | 75 | 1002.9 |
| 20260505005557 | 52 | 209 | 11.3 | 16.5 | 0.07 | 0.08 | 0.08 | 75 | 1003.0 |
| 20260505005056 | 52 | 193 | 6.1 | 13.0 | 0.06 | 0.07 | 0.07 | 73 | 1005.3 |
| 20260505004555 | 52 | 217 | 6.1 | 12.2 | 0.06 | 0.06 | 0.06 | 71 | 1006.0 |
| 20260505004052 | 53 | 212 | 6.1 | 11.3 | 0.05 | 0.05 | 0.05 | 70 | 1006.3 |
| 20260505003551 | 54 | 245 | 3.5 | 10.4 | 0.04 | 0.04 | 0.04 | 69 | 1006.2 |
| 20260505003053 | 54 | 192 | 3.5 | 10.4 | 0.03 | 0.03 | 0.03 | 65 | 1005.9 |
| 20260505002550 | 55 | 200 | 4.3 | 9.6 | 0.03 | 0.03 | 0.03 | 65 | 1005.7 |
| 20260505002051 | 54 | 209 | 6.1 | 14.8 | 0.03 | 0.03 | 0.03 | 65 | 1005.5 |
| 20260505001550 | 54 | 184 | 8.7 | 17.4 | 0.03 | 0.03 | 0.03 | 65 | 1005.4 |
| 20260505001054 | 54 | 173 | 12.2 | 17.4 | 0.03 | 0.03 | 0.03 | 67 | 1005.4 |
| 20260505000549 | 54 | 194 | 11.3 | 20.0 | 0.03 | 0.03 | 0.03 | 67 | 1005.2 |
| 20260505000054 | 55 | 159 | 13.0 | 21.7 | 0.02 | 0.02 | 0.02 | 64 | 1005.0 |
| 20260504235552 | 58 | 148 | 11.3 | 18.2 | 0.01 | 0.01 | 0.01 | 57 | 1005.1 |
| 20260504235048 | 61 | 44 | 5.2 | 11.3 | 0.00 | 0.00 | 0.00 | 54 | 1004.7 |
| 20260504234548 | 61 | 360 | 0.9 | 7.8 | 0.00 | 0.00 | 0.00 | 49 | 1004.1 |
| 20260504234047 | 62 | 360 | 3.5 | 8.7 | 0.00 | 0.00 | 0.00 | 45 | 1003.7 |
| 20260504233550 | 62 | 360 | 4.3 | 9.6 | 0.00 | 0.00 | 0.00 | 43 | 1003.5 |
| 20260504233052 | 62 | 360 | 4.3 | 10.4 | 0.00 | 0.00 | 0.00 | 42 | 1003.3 |
| 20260504232545 | 62 | 360 | 6.1 | 13.0 | 0.00 | 0.00 | 0.00 | 44 | 1003.3 |
| 20260504232045 | 62 | 360 | 8.7 | 13.0 | 0.00 | 0.00 | 0.00 | 42 | 1003.4 |
| 20260504231545 | 63 | 360 | 7.8 | 14.8 | 0.00 | 0.00 | 0.00 | 41 | 1003.4 |
| 20260504231046 | 62 | 360 | 8.7 | 14.8 | 0.00 | 0.00 | 0.00 | 40 | 1003.5 |
| 20260504230545 | 63 | 360 | 9.6 | 14.8 | 0.00 | 0.00 | 0.00 | 40 | 1003.4 |
| 20260504230104 | 62 | 360 | 8.7 | 17.4 | 0.00 | 0.00 | 0.00 | 40 | 1003.4 |
| 20260504225548 | 63 | 360 | 10.4 | 18.2 | 0.00 | 0.00 | 0.00 | 40 | 1003.3 |
| 20260504225047 | 62 | 360 | 9.6 | 18.2 | 0.00 | 0.00 | 0.00 | 40 | 1003.5 |
| 20260504224558 | 63 | 360 | 11.3 | 17.4 | 0.00 | 0.00 | 0.00 | 39 | 1003.5 |
| 20260504224042 | 63 | 360 | 8.7 | 18.2 | 0.00 | 0.00 | 0.00 | 40 | 1003.5 |
| 20260504223542 | 63 | 360 | 11.3 | 20.9 | 0.00 | 0.00 | 0.00 | 40 | 1003.5 |
| 20260504223042 | 63 | 360 | 8.7 | 20.9 | 0.00 | 0.00 | 0.00 | 41 | 1003.5 |
| 20260504222541 | 63 | 360 | 7.8 | 19.1 | 0.00 | 0.00 | 0.00 | 42 | 1003.5 |
| 20260504222041 | 62 | 360 | 11.3 | 19.1 | 0.00 | 0.00 | 0.00 | 43 | 1003.6 |
| 20260504221542 | 62 | 360 | 9.6 | 20.0 | 0.00 | 0.00 | 0.00 | 43 | 1003.6 |
| 20260504221043 | 62 | 360 | 11.3 | 20.0 | 0.00 | 0.00 | 0.00 | 43 | 1003.6 |
| 20260504220541 | 63 | 360 | 9.6 | 20.0 | 0.00 | 0.00 | 0.00 | 43 | 1003.6 |
| 20260504220050 | 63 | 360 | 9.6 | 18.2 | 0.00 | 0.00 | 0.00 | 43 | 1003.6 |
| 20260504215542 | 62 | 360 | 13.9 | 18.2 | 0.00 | 0.00 | 0.00 | 44 | 1003.6 |
| 20260504215043 | 63 | 360 | 12.2 | 18.2 | 0.00 | 0.00 | 0.00 | 43 | 1003.8 |
| 20260504214545 | 63 | 360 | 11.3 | 18.2 | 0.00 | 0.00 | 0.00 | 42 | 1003.8 |
| 20260504214038 | 63 | 360 | 9.6 | 19.1 | 0.00 | 0.00 | 0.00 | 43 | 1003.9 |
| 20260504213537 | 64 | 360 | 10.4 | 15.6 | 0.00 | 0.00 | 0.00 | 43 | 1003.9 |
| 20260504213037 | 63 | 360 | 7.8 | 16.5 | 0.00 | 0.00 | 0.00 | 43 | 1004.2 |
| 20260504212535 | 63 | 360 | 9.6 | 17.4 | 0.00 | 0.00 | 0.00 | 42 | 1004.2 |
| 20260504212040 | 62 | 360 | 8.7 | 17.4 | 0.00 | 0.00 | 0.00 | 43 | 1004.2 |
| 20260504211537 | 63 | 360 | 8.7 | 16.5 | 0.00 | 0.00 | 0.00 | 42 | 1004.2 |
| 20260504211037 | 63 | 360 | 10.4 | 19.1 | 0.00 | 0.00 | 0.00 | 43 | 1004.3 |
| 20260504210536 | 64 | 360 | 9.6 | 19.1 | 0.00 | 0.00 | 0.00 | 40 | 1004.2 |
| 20260504210047 | 64 | 360 | 8.7 | 14.8 | 0.00 | 0.00 | 0.00 | 40 | 1004.2 |
| 20260504205536 | 63 | 360 | 8.7 | 16.5 | 0.00 | 0.00 | 0.00 | 40 | 1004.3 |
| 20260504205035 | 64 | 360 | 10.4 | 19.1 | 0.00 | 0.00 | 0.00 | 39 | 1004.4 |
| 20260504204540 | 65 | 360 | 10.4 | 19.1 | 0.00 | 0.00 | 0.00 | 39 | 1004.3 |
| 20260504204035 | 65 | 360 | 8.7 | 14.8 | 0.00 | 0.00 | 0.00 | 39 | 1004.3 |
| 20260504203534 | 65 | 360 | 8.7 | 14.8 | 0.00 | 0.00 | 0.00 | 39 | 1004.4 |
| 20260504203034 | 64 | 360 | 7.0 | 15.6 | 0.00 | 0.00 | 0.00 | 41 | 1004.4 |
| 20260504202534 | 63 | 360 | 8.7 | 15.6 | 0.00 | 0.00 | 0.00 | 41 | 1004.6 |
| 20260504202133 | 63 | 360 | 7.8 | 15.6 | 0.00 | 0.00 | 0.00 | 42 | 1004.6 |
| 20260504201533 | 63 | 360 | 9.6 | 15.6 | 0.00 | 0.00 | 0.00 | 41 | 1004.6 |
| 20260504201033 | 64 | 360 | 8.7 | 15.6 | 0.00 | 0.00 | 0.00 | 40 | 1004.7 |
| 20260504200535 | 64 | 360 | 9.6 | 15.6 | 0.00 | 0.00 | 0.00 | 41 | 1004.7 |
| 20260504200045 | 65 | 360 | 8.7 | 14.8 | 0.00 | 0.00 | 0.00 | 40 | 1004.8 |
| 20260504195530 | 64 | 360 | 8.7 | 14.8 | 0.00 | 0.00 | 0.00 | 42 | 1004.9 |
| 20260504195032 | 63 | 360 | 7.8 | 14.8 | 0.00 | 0.00 | 0.00 | 43 | 1005.0 |
| 20260504194530 | 63 | 360 | 5.2 | 12.2 | 0.00 | 0.00 | 0.00 | 40 | 1005.0 |
| 20260504194029 | 63 | 360 | 6.1 | 15.6 | 0.00 | 0.00 | 0.00 | 40 | 1005.2 |
| 20260504193529 | 62 | 360 | 8.7 | 15.6 | 0.00 | 0.00 | 0.00 | 40 | 1005.3 |
| 20260504193026 | 62 | 360 | 8.7 | 13.0 | 0.00 | 0.00 | 0.00 | 40 | 1005.4 |
| 20260504192526 | 61 | 360 | 6.1 | 14.8 | 0.00 | 0.00 | 0.00 | 44 | 1005.4 |
| 20260504192030 | 60 | 360 | 10.4 | 14.8 | 0.00 | 0.00 | 0.00 | 43 | 1005.5 |
| 20260504191526 | 60 | 360 | 7.8 | 13.9 | 0.00 | 0.00 | 0.00 | 44 | 1005.5 |
| 20260504191027 | 60 | 360 | 7.0 | 16.5 | 0.00 | 0.00 | 0.00 | 45 | 1005.6 |
| 20260504190527 | 60 | 360 | 8.7 | 17.4 | 0.00 | 0.00 | 0.00 | 45 | 1005.4 |
| 20260504190026 | 61 | 360 | 8.7 | 15.6 | 0.00 | 0.00 | 0.00 | 43 | 1005.5 |
| 20260504185525 | 60 | 360 | 8.7 | 18.2 | 0.00 | 0.00 | 0.00 | 43 | 1005.5 |
| 20260504185024 | 61 | 360 | 4.3 | 9.6 | 0.00 | 0.00 | 0.00 | 43 | 1005.5 |
| 20260504184533 | 60 | 360 | 5.2 | 8.7 | 0.00 | 0.00 | 0.00 | 43 | 1005.5 |
| 20260504184024 | 60 | 360 | 4.3 | 7.8 | 0.00 | 0.00 | 0.00 | 44 | 1005.6 |
| 20260504183524 | 60 | 360 | 4.3 | 9.6 | 0.00 | 0.00 | 0.00 | 44 | 1005.6 |
| 20260504183031 | 60 | 360 | 5.2 | 10.4 | 0.00 | 0.00 | 0.00 | 43 | 1005.5 |
| 20260504182523 | 60 | 360 | 4.3 | 10.4 | 0.00 | 0.00 | 0.00 | 44 | 1005.5 |
| 20260504182022 | 60 | 360 | 3.5 | 9.6 | 0.00 | 0.00 | 0.00 | 43 | 1005.5 |
| 20260504181522 | 60 | 360 | 3.5 | 12.2 | 0.00 | 0.00 | 0.00 | 45 | 1005.5 |
| 20260504181024 | 60 | 360 | 4.3 | 12.2 | 0.00 | 0.00 | 0.00 | 44 | 1005.4 |
| 20260504180522 | 60 | 360 | 3.5 | 9.6 | 0.00 | 0.00 | 0.00 | 46 | 1005.3 |
| 20260504180025 | 60 | 360 | 3.5 | 9.6 | 0.00 | 0.00 | 0.00 | 45 | 1005.4 |
| 20260504175521 | 59 | 360 | 2.6 | 10.4 | 0.00 | 0.00 | 0.00 | 46 | 1005.2 |
| 20260504175020 | 59 | 360 | 3.5 | 10.4 | 0.00 | 0.00 | 0.00 | 46 | 1005.2 |
| 20260504174520 | 59 | 360 | 4.3 | 11.3 | 0.00 | 0.00 | 0.00 | 47 | 1005.1 |
| 20260504174021 | 59 | 360 | 4.3 | 10.4 | 0.00 | 0.00 | 0.00 | 47 | 1005.1 |
| 20260504173520 | 59 | 360 | 4.3 | 10.4 | 0.00 | 0.00 | 0.00 | 48 | 1005.1 |
| 20260504173017 | 58 | 360 | 5.2 | 13.9 | 0.00 | 0.00 | 0.00 | 48 | 1005.1 |
| 20260504172521 | 58 | 360 | 7.0 | 13.0 | 0.00 | 0.00 | 0.00 | 48 | 1005.0 |
| 20260504172016 | 58 | 360 | 7.8 | 13.0 | 0.00 | 0.00 | 0.00 | 49 | 1005.1 |
| 20260504171516 | 58 | 360 | 7.8 | 12.2 | 0.00 | 0.00 | 0.00 | 49 | 1005.1 |
| 20260504171016 | 58 | 360 | 7.8 | 12.2 | 0.00 | 0.00 | 0.00 | 50 | 1005.1 |
| 20260504170515 | 58 | 360 | 6.1 | 11.3 | 0.00 | 0.00 | 0.00 | 51 | 1005.1 |
| 20260504151006 | 55 | 360 | 2.6 | 5.2 | 0.00 | 0.00 | 0.00 | 57 | 1006.0 |
| 20260504150506 | 55 | 360 | 2.6 | 5.2 | 0.00 | 0.00 | 0.00 | 53 | 1005.8 |
| 20260504141002 | 55 | 360 | 7.0 | 13.0 | 0.00 | 0.00 | 0.00 | 50 | 1005.0 |
| 20260504140600 | 54 | 360 | 6.1 | 10.4 | 0.00 | 0.00 | 0.00 | 50 | 1005.0 |
| 20260504130556 | 55 | 360 | 7.0 | 13.0 | 0.00 | 0.00 | 0.00 | 47 | 1004.3 |
| 20260504120119 | 55 | 360 | 4.3 | 11.3 | 0.00 | 0.00 | 0.00 | 47 | 1004.8 |
| 20260504110549 | 54 | 360 | 5.2 | 13.9 | 0.00 | 0.00 | 0.00 | 50 | 1005.0 |
| 20260504081529 | 56 | 360 | 4.3 | 10.4 | 0.00 | 0.00 | 0.00 | 46 | 1005.2 |
| 20260504081027 | 56 | 360 | 7.0 | 12.2 | 0.00 | 0.00 | 0.00 | 46 | 1005.3 |
| 20260504080527 | 56 | 360 | 7.0 | 12.2 | 0.00 | 0.00 | 0.00 | 46 | 1005.3 |